This is the latest recevied weather packets stored in our database for station/object K6GMW. If no packets are shown the sender has not sent any weather packets the latest 10 day(s).
| Time | Temp. | Humidity | Pressure | Rain* | Wind** | Luminosity | Snow |
|---|---|---|---|---|---|---|---|
| 1777731119 | 18.33° C | 72% | 1022 hPa | 0 mm | - | 338 W/m² | - |
| 1777730513 | 18.33° C | 72% | 1021.8 hPa | 0 mm | - | 434 W/m² | - |
| 1777730209 | 17.78° C | 72% | 1021.7 hPa | 0 mm | - | 453 W/m² | - |
| 1777729906 | 17.78° C | 76% | 1021.5 hPa | 0 mm | - | 473 W/m² | - |
| 1777729603 | 17.78° C | 77% | 1021.6 hPa | 0 mm | - | 521 W/m² | - |
| 1777729299 | 17.22° C | 76% | 1021.6 hPa | 0 mm | - | 498 W/m² | - |
| 1777728996 | 16.67° C | 78% | 1021.2 hPa | 0 mm | - | 464 W/m² | - |
| 1777728693 | 15.56° C | 84% | 1021.5 hPa | 0 mm | - | 427 W/m² | - |
| 1777728390 | 14.44° C | 87% | 1021.4 hPa | 0 mm | - | 370 W/m² | - |
| 1777728087 | 13.89° C | 89% | 1021.4 hPa | 0 mm | - | 292 W/m² | - |
| 1777727784 | 13.89° C | 91% | 1021.4 hPa | 0 mm | - | 234 W/m² | - |
| 1777727481 | 13.89° C | 92% | 1021.5 hPa | 0 mm | - | 198 W/m² | - |
| 1777727178 | 12.78° C | 94% | 1021.4 hPa | 0 mm | - | 171 W/m² | - |
| 1777726876 | 12.78° C | 95% | 1021.4 hPa | 0 mm | - | 134 W/m² | - |
| 1777726572 | 12.22° C | 97% | 1021.4 hPa | 0 mm | - | 146 W/m² | - |
| 1777726269 | 11.67° C | 98% | 1021.4 hPa | 0 mm | - | 136 W/m² | - |
| 1777725966 | 11.11° C | 98% | 1021.4 hPa | 0 mm | - | 122 W/m² | - |
| 1777725663 | 11.11° C | 98% | 1021.3 hPa | 0 mm | - | 65 W/m² | - |
| 1777725361 | 10.56° C | 98% | 1021.2 hPa | 0 mm | - | 71 W/m² | - |
| 1777725058 | 10° C | 98% | 1021.2 hPa | 0 mm | - | 69 W/m² | - |
| 1777724754 | 10° C | 98% | 1021.5 hPa | 0 mm | - | 62 W/m² | - |
| 1777724452 | 9.44° C | 98% | 1021.5 hPa | 0 mm | - | 54 W/m² | - |
| 1777724149 | 9.44° C | 98% | 1021.1 hPa | 0 mm | - | 42 W/m² | - |
| 1777723847 | 9.44° C | 98% | 1021 hPa | 0 mm | - | 36 W/m² | - |
| 1777723542 | 9.44° C | 98% | 1020.9 hPa | 0 mm | - | 31 W/m² | - |
* Rain latest hour (hover to see other rain measurements)
** Current wind speed in m/s (hover to see current wind gust speed)